When you browse on this site, cookies collect data to enhance your experience and personalize the content and advertising you see.
Visit our Privacy Policy to learn more. By continuing to use the site, you agree to this use of cookies and data.
  • Em Portugal
  • Lista de países
  • Para 7 dias
  • Temperatura da água
  • Mapas de satélite
  • Mapa do tempo
  • Widgets de tempo
  • user-avatar
    Iniciar Sessão

    Previsão horária em Taunsvil

    Hoje, 24 Janeiro, Quinta-feira

    Tempo Temperatura Precipitação Vento Pressão Humidade
    00:00 +28°C° 0 mm 3 m/s 751 mmHg 87%
    01:00 +28°C° 0 mm 3 m/s 750 mmHg 88%
    02:00 +27°C° 0 mm 3 m/s 750 mmHg 88%
    03:00 +27°C° 0 mm 3 m/s 750 mmHg 89%
    04:00 +27°C° 0 mm 3 m/s 750 mmHg 89%
    05:00 +27°C° 0 mm 3 m/s 750 mmHg 88%
    06:00 +28°C° 0 mm 3 m/s 751 mmHg 86%
    07:00 +28°C° 0 mm 3 m/s 751 mmHg 85%
    08:00 +29°C° 0 mm 3 m/s 751 mmHg 79%
    09:00 +30°C° 0 mm 4 m/s 751 mmHg 73%
    10:00 +32°C° 0 mm 4 m/s 751 mmHg 69%
    11:00 +33°C° 0.2 mm 4 m/s 751 mmHg 66%
    12:00 +33°C° 0.2 mm 5 m/s 750 mmHg 64%
    13:00 +34°C° 0.2 mm 5 m/s 750 mmHg 62%
    14:00 +33°C° 0.1 mm 5 m/s 749 mmHg 64%
    15:00 +33°C° 0.1 mm 5 m/s 749 mmHg 66%
    16:00 +32°C° 0.1 mm 6 m/s 749 mmHg 68%
    17:00 +30°C° 0 mm 5 m/s 749 mmHg 71%
    18:00 +30°C° 0 mm 5 m/s 750 mmHg 75%
    19:00 +29°C° 0 mm 5 m/s 750 mmHg 78%
    20:00 +28°C° 0 mm 5 m/s 751 mmHg 79%
    21:00 +28°C° 0 mm 5 m/s 751 mmHg 81%
    22:00 +28°C° 0 mm 5 m/s 752 mmHg 82%
    23:00 +28°C° 0.1 mm 5 m/s 751 mmHg 83%

    Amanhã, 25 Janeiro, Sexta-feira

    Tempo Temperatura Precipitação Vento Pressão Humidade
    00:00 +28°C° 0.1 mm 5 m/s 751 mmHg 83%
    01:00 +27°C° 0.1 mm 5 m/s 751 mmHg 84%
    02:00 +27°C° 0.2 mm 5 m/s 751 mmHg 85%
    03:00 +27°C° 0.2 mm 4 m/s 750 mmHg 85%
    04:00 +27°C° 0.2 mm 4 m/s 750 mmHg 86%
    05:00 +27°C° 0.3 mm 4 m/s 750 mmHg 86%
    06:00 +27°C° 0.3 mm 5 m/s 751 mmHg 85%
    07:00 +27°C° 0.3 mm 5 m/s 751 mmHg 85%
    08:00 +28°C° 0.3 mm 5 m/s 751 mmHg 80%
    09:00 +29°C° 0.3 mm 6 m/s 751 mmHg 75%
    10:00 +32°C° 0.3 mm 6 m/s 751 mmHg 70%
    11:00 +32°C° 0.2 mm 7 m/s 751 mmHg 66%
    12:00 +33°C° 0.2 mm 7 m/s 750 mmHg 63%
    13:00 +33°C° 0.2 mm 7 m/s 750 mmHg 59%
    14:00 +33°C° 0 mm 7 m/s 750 mmHg 61%
    15:00 +33°C° 0 mm 7 m/s 749 mmHg 62%
    16:00 +32°C° 0 mm 6 m/s 749 mmHg 63%
    17:00 +30°C° 0 mm 6 m/s 749 mmHg 67%
    18:00 +29°C° 0 mm 6 m/s 749 mmHg 71%
    19:00 +28°C° 0 mm 6 m/s 749 mmHg 76%
    20:00 +28°C° 0.1 mm 6 m/s 750 mmHg 77%
    21:00 +28°C° 0.1 mm 6 m/s 751 mmHg 79%
    22:00 +28°C° 0.1 mm 6 m/s 751 mmHg 80%
    23:00 +28°C° 0.2 mm 6 m/s 751 mmHg 81%

    Depois de amanhã, 26 Janeiro, Sábado

    Tempo Temperatura Precipitação Vento Pressão Humidade
    00:00 +28°C° 0.2 mm 6 m/s 750 mmHg 82%
    01:00 +28°C° 0.2 mm 6 m/s 750 mmHg 83%
    02:00 +28°C° 0.2 mm 6 m/s 749 mmHg 83%
    03:00 +27°C° 0.2 mm 7 m/s 748 mmHg 84%
    04:00 +27°C° 0.2 mm 8 m/s 747 mmHg 84%
    05:00 +27°C° 0.2 mm 8 m/s 748 mmHg 84%
    06:00 +28°C° 0.2 mm 8 m/s 748 mmHg 84%
    07:00 +28°C° 0.2 mm 8 m/s 748 mmHg 84%
    08:00 +28°C° 1 mm 8 m/s 749 mmHg 84%
    09:00 +28°C° 1 mm 9 m/s 749 mmHg 84%
    10:00 +28°C° 1 mm 9 m/s 749 mmHg 84%
    11:00 +28°C° 4 mm 9 m/s 748 mmHg 84%
    12:00 +27°C° 4 mm 9 m/s 748 mmHg 84%
    13:00 +27°C° 4 mm 10 m/s 748 mmHg 84%
    14:00 +27°C° 12.5 mm 9 m/s 747 mmHg 85%
    15:00 +26°C° 12.5 mm 9 m/s 746 mmHg 87%
    16:00 +26°C° 12.5 mm 8 m/s 746 mmHg 88%
    17:00 +26°C° 13.5 mm 9 m/s 746 mmHg 88%
    18:00 +26°C° 13.5 mm 10 m/s 746 mmHg 88%
    19:00 +26°C° 13.5 mm 10 m/s 747 mmHg 88%
    20:00 +26°C° 11 mm 10 m/s 747 mmHg 89%
    21:00 +26°C° 11 mm 10 m/s 747 mmHg 89%
    22:00 +26°C° 11 mm 10 m/s 748 mmHg 90%
    23:00 +26°C° 16.4 mm 8 m/s 747 mmHg 91%

    27 Janeiro, Domingo

    Tempo Temperatura Precipitação Vento Pressão Humidade
    00:00 +26°C° 16.4 mm 6 m/s 747 mmHg 92%
    01:00 +26°C° 16.4 mm 4 m/s 746 mmHg 93%
    02:00 +26°C° 2.9 mm 4 m/s 746 mmHg 92%
    03:00 +26°C° 2.9 mm 4 m/s 746 mmHg 92%
    04:00 +26°C° 2.9 mm 3 m/s 745 mmHg 92%
    05:00 +27°C° 0.5 mm 3 m/s 746 mmHg 92%
    06:00 +27°C° 0.5 mm 3 m/s 747 mmHg 91%
    07:00 +27°C° 0.5 mm 3 m/s 747 mmHg 91%
    08:00 +28°C° 0.3 mm 3 m/s 748 mmHg 87%
    09:00 +29°C° 0.3 mm 3 m/s 748 mmHg 83%
    10:00 +30°C° 0.3 mm 3 m/s 748 mmHg 80%
    11:00 +31°C° 0.1 mm 3 m/s 748 mmHg 75%
    12:00 +33°C° 0.1 mm 3 m/s 747 mmHg 71%
    13:00 +33°C° 0.1 mm 3 m/s 747 mmHg 67%
    14:00 +33°C° 0.1 mm 4 m/s 747 mmHg 69%
    15:00 +33°C° 0.1 mm 5 m/s 746 mmHg 71%
    16:00 +32°C° 0.1 mm 5 m/s 746 mmHg 73%
    17:00 +30°C° 0.6 mm 6 m/s 747 mmHg 78%
    18:00 +29°C° 0.6 mm 7 m/s 748 mmHg 83%
    19:00 +27°C° 0.6 mm 7 m/s 748 mmHg 88%
    20:00 +27°C° 0.4 mm 8 m/s 749 mmHg 88%
    21:00 +27°C° 0.4 mm 8 m/s 749 mmHg 88%
    22:00 +27°C° 0.4 mm 8 m/s 750 mmHg 89%
    23:00 +27°C° 0.5 mm 8 m/s 750 mmHg 89%

    28 Janeiro, Segunda-feira

    Tempo Temperatura Precipitação Vento Pressão Humidade
    00:00 +27°C° 0.5 mm 7 m/s 749 mmHg 89%
    01:00 +27°C° 0.5 mm 6 m/s 749 mmHg 90%
    02:00 +27°C° 0.8 mm 6 m/s 749 mmHg 90%
    03:00 +27°C° 0.8 mm 5 m/s 749 mmHg 91%
    04:00 +27°C° 0.8 mm 5 m/s 748 mmHg 91%
    05:00 +27°C° 0.7 mm 5 m/s 749 mmHg 91%
    06:00 +27°C° 0.7 mm 5 m/s 749 mmHg 90%
    07:00 +27°C° 0.7 mm 4 m/s 750 mmHg 90%
    08:00 +28°C° 0.7 mm 5 m/s 750 mmHg 88%
    09:00 +28°C° 0.7 mm 5 m/s 750 mmHg 87%
    10:00 +28°C° 0.7 mm 5 m/s 750 mmHg 86%
    11:00 +29°C° 0.8 mm 5 m/s 750 mmHg 85%
    12:00 +29°C° 0.8 mm 5 m/s 749 mmHg 84%
    13:00 +29°C° 0.8 mm 5 m/s 749 mmHg 83%
    14:00 +29°C° 0.7 mm 5 m/s 749 mmHg 83%
    15:00 +29°C° 0.7 mm 5 m/s 748 mmHg 84%
    16:00 +29°C° 0.7 mm 5 m/s 748 mmHg 84%
    17:00 +28°C° 0.8 mm 5 m/s 749 mmHg 87%
    18:00 +28°C° 0.8 mm 5 m/s 749 mmHg 89%
    19:00 +27°C° 0.8 mm 5 m/s 750 mmHg 91%
    20:00 +27°C° 1.2 mm 5 m/s 750 mmHg 91%
    21:00 +27°C° 1.2 mm 5 m/s 750 mmHg 91%
    22:00 +27°C° 1.2 mm 5 m/s 751 mmHg 91%
    23:00 +27°C° 1.3 mm 5 m/s 750 mmHg 91%

    29 Janeiro, Terça-feira

    Tempo Temperatura Precipitação Vento Pressão Humidade
    00:00 +27°C° 1.3 mm 5 m/s 750 mmHg 91%
    01:00 +27°C° 1.3 mm 5 m/s 750 mmHg 91%
    02:00 +27°C° 1.7 mm 5 m/s 749 mmHg 92%
    03:00 +27°C° 1.7 mm 5 m/s 749 mmHg 92%
    04:00 +27°C° 1.7 mm 5 m/s 749 mmHg 93%
    05:00 +27°C° 3.4 mm 5 m/s 749 mmHg 93%
    06:00 +27°C° 3.4 mm 6 m/s 749 mmHg 93%
    07:00 +27°C° 3.4 mm 6 m/s 750 mmHg 93%
    08:00 +27°C° 3.9 mm 6 m/s 750 mmHg 93%
    09:00 +27°C° 3.9 mm 6 m/s 750 mmHg 93%
    10:00 +27°C° 3.9 mm 7 m/s 750 mmHg 93%
    11:00 +27°C° 6 mm 7 m/s 750 mmHg 93%
    12:00 +27°C° 6 mm 7 m/s 749 mmHg 93%
    13:00 +27°C° 6 mm 7 m/s 749 mmHg 93%
    14:00 +27°C° 8.6 mm 8 m/s 748 mmHg 93%
    15:00 +27°C° 8.6 mm 8 m/s 748 mmHg 93%
    16:00 +27°C° 8.6 mm 8 m/s 748 mmHg 93%
    17:00 +27°C° 7.5 mm 8 m/s 748 mmHg 93%
    18:00 +27°C° 7.5 mm 9 m/s 748 mmHg 93%
    19:00 +27°C° 7.5 mm 9 m/s 748 mmHg 93%
    20:00 +27°C° 14.2 mm 9 m/s 749 mmHg 93%
    21:00 +27°C° 14.2 mm 10 m/s 749 mmHg 93%
    22:00 +27°C° 14.2 mm 10 m/s 749 mmHg 93%
    23:00 +27°C° 26.8 mm 10 m/s 749 mmHg 93%
    Mostrar mais